Location: Monroe
(41.9160°N, 83.3980°W)
Time: 09:37:08
(UTC-04:00)

ISS - All Passes

Search period start: 23 August 2017 00:00
Search period end: 02 September 2017 00:00
Orbit: 401 x 408 km, 51.6° (Epoch: 23 August)

Date Brightness Start Highest point End Pass type
(mag) Time Alt. Az. Time Alt. Az. Time Alt. Az.
23 Aug - 09:24:20 10° S 09:26:49 20° SE 09:29:18 10° E daylight
23 Aug - 10:59:52 10° WSW 11:03:04 50° NNW 11:06:17 10° NE daylight
23 Aug - 12:37:51 10° NW 12:40:08 17° N 12:42:23 10° NNE daylight
23 Aug - 14:15:19 10° NNW 14:17:32 17° N 14:19:46 10° NE daylight
23 Aug - 15:51:27 10° NW 15:54:38 46° NNE 15:57:47 10° ESE daylight
23 Aug - 17:28:20 10° W 17:30:55 22° SW 17:33:30 10° S daylight
24 Aug - 08:34:05 10° SE 08:34:48 11° SE 08:35:32 10° ESE daylight
24 Aug - 10:07:31 10° SW 10:10:48 90° NW 10:14:05 10° NE daylight
24 Aug - 11:45:03 10° WNW 11:47:38 21° NNW 11:50:14 10° NE daylight
24 Aug - 13:23:00 10° NW 13:25:01 15° N 13:27:03 10° NE daylight
24 Aug - 14:59:20 10° NW 15:02:16 30° NNE 15:05:12 10° E daylight
24 Aug - 16:35:43 10° WNW 16:38:49 41° SW 16:41:54 10° SSE daylight
25 Aug - 09:15:26 10° SW 09:18:35 47° SE 09:21:46 10° ENE daylight
25 Aug - 10:52:17 10° W 10:55:11 28° NNW 10:58:06 10° NE daylight
25 Aug - 12:30:27 10° NW 12:32:28 15° N 12:34:29 10° NE daylight
25 Aug - 14:07:12 10° NW 14:09:50 22° NNE 14:12:27 10° ENE daylight
25 Aug - 15:43:21 10° WNW 15:46:38 81° SW 15:49:53 10° SE daylight
26 Aug - 08:23:43 10° SSW 08:26:27 25° SE 08:29:12 10° ENE daylight
26 Aug - 09:59:39 10° W 10:02:48 42° NNW 10:05:57 10° NE daylight
26 Aug - 11:37:44 10° NW 11:39:55 16° N 11:42:06 10° NNE daylight
26 Aug - 13:15:01 10° NNW 13:17:20 18° NNE 13:19:39 10° ENE daylight
26 Aug - 14:51:07 10° NW 14:54:21 55° NNE 14:57:33 10° ESE daylight
26 Aug - 16:28:16 10° W 16:30:33 18° SW 16:32:48 10° S daylight
27 Aug - 07:32:42 10° SSE 07:34:23 13° SE 07:36:03 10° E daylight
27 Aug - 09:07:11 10° WSW 09:10:28 73° NNW 09:13:45 10° NE daylight
27 Aug - 10:44:54 10° WNW 10:47:22 19° NNW 10:49:51 10° NE daylight
27 Aug - 12:22:41 10° NNW 12:24:47 16° N 12:26:51 10° NE daylight
27 Aug - 13:58:56 10° NW 14:01:58 34° NNE 14:05:00 10° E daylight
27 Aug - 15:35:28 10° WNW 15:38:26 32° SW 15:41:23 10° SSE daylight
28 Aug - 08:14:57 10° SW 08:18:12 60° SE 08:21:27 10° ENE daylight
28 Aug - 09:52:05 10° WNW 09:54:52 25° NNW 09:57:40 10° NE daylight
28 Aug - 11:30:12 10° NW 11:32:11 15° N 11:34:11 10° NE daylight
28 Aug - 13:06:46 10° NW 13:09:31 24° NNE 13:12:16 10° ENE daylight
28 Aug - 14:42:59 10° WNW 14:46:14 64° SW 14:49:27 10° SE daylight
29 Aug - 07:23:03 10° SSW 07:25:59 31° SE 07:28:56 10° ENE daylight
29 Aug - 08:59:21 10° W 09:02:25 36° NNW 09:05:30 10° NE daylight
29 Aug - 10:37:29 10° NW 10:39:36 16° N 10:41:42 10° NNE daylight
29 Aug - 12:14:34 10° NW 12:17:00 19° NNE 12:19:26 10° ENE daylight
29 Aug - 13:50:40 10° NW 13:53:56 68° NNE 13:57:11 10° ESE daylight
29 Aug - 15:28:13 10° W 15:30:02 14° SW 15:31:51 10° SSW daylight
30 Aug - 06:31:40 10° S 06:33:51 17° SE 06:36:02 10° E daylight
30 Aug - 08:06:46 10° WSW 08:10:01 59° NNW 08:13:17 10° NE daylight
30 Aug - 09:44:38 10° WNW 09:47:00 18° NNW 09:49:23 10° NNE daylight
30 Aug - 11:22:16 10° NNW 11:24:25 16° N 11:26:34 10° NE daylight
30 Aug - 12:58:26 10° NW 13:01:33 40° NNE 13:04:40 10° E daylight
30 Aug - 14:35:07 10° WNW 14:37:55 26° SW 14:40:42 10° SSE daylight
31 Aug - 07:14:24 10° SW 07:17:41 76° SE 07:20:58 10° ENE daylight
31 Aug - 08:51:46 10° WNW 08:54:27 23° NNW 08:57:08 10° NE daylight
31 Aug - 10:29:47 10° NW 10:31:48 15° N 10:33:49 10° NE daylight
31 Aug - 12:06:13 10° NW 12:09:05 27° NNE 12:11:57 10° E daylight
31 Aug - 13:42:31 10° WNW 13:45:43 50° SW 13:48:52 10° SE daylight
01 Sep - 06:22:19 10° SSW 06:25:25 38° SE 06:28:30 10° ENE visible
01 Sep - 07:58:57 10° W 08:01:56 31° NNW 08:04:55 10° NE daylight
01 Sep - 09:37:06 10° NW 09:39:10 15° N 09:41:13 10° NE daylight
01 Sep - 11:13:59 10° NW 11:16:33 20° NNE 11:19:05 10° ENE daylight
01 Sep - 12:50:07 10° NW 12:53:24 84° NNE 12:56:41 10° ESE daylight
01 Sep - 14:28:20 10° WSW 14:29:25 11° SW 14:30:29 10° SSW daylight
